TimeEST,TemperatureF,Dew PointF,Humidity,Sea Level PressureIn,VisibilityMPH,Wind Direction,Wind SpeedMPH,Gust SpeedMPH,PrecipitationIn,Events,Conditions,WindDirDegrees,DateUTC
12:53 AM,37.0,34.0,89,29.93,9.0,West,5.8,-,N/A,,Clear,260,2013-01-17 05:53:00
1:53 AM,37.9,33.1,83,29.93,9.0,West,5.8,-,N/A,,Partly Cloudy,280,2013-01-17 06:53:00
2:53 AM,37.0,34.0,89,29.93,9.0,Calm,Calm,-,N/A,,Clear,0,2013-01-17 07:53:00
3:53 AM,37.0,33.1,86,29.94,10.0,West,4.6,-,N/A,,Clear,270,2013-01-17 08:53:00
4:53 AM,37.9,30.9,76,29.93,10.0,WSW,4.6,-,N/A,,Partly Cloudy,250,2013-01-17 09:53:00
5:53 AM,37.9,30.9,76,29.95,10.0,WNW,5.8,-,N/A,,Clear,300,2013-01-17 10:53:00
6:53 AM,39.0,28.0,65,29.99,10.0,WNW,8.1,-,N/A,,Clear,300,2013-01-17 11:53:00
7:53 AM,39.0,27.0,62,30.01,10.0,WNW,6.9,-,N/A,,Clear,300,2013-01-17 12:53:00
8:53 AM,39.0,27.0,62,30.05,10.0,WNW,10.4,-,N/A,,Clear,300,2013-01-17 13:53:00
9:53 AM,39.9,26.1,58,30.05,10.0,NNW,12.7,19.6,N/A,,Clear,330,2013-01-17 14:53:00
10:53 AM,41.0,26.1,55,30.05,10.0,NW,11.5,19.6,N/A,,Clear,310,2013-01-17 15:53:00
11:53 AM,43.0,26.1,51,30.04,10.0,NW,13.8,19.6,N/A,,Clear,310,2013-01-17 16:53:00
12:53 PM,43.0,26.1,51,30.04,10.0,North,12.7,24.2,N/A,,Partly Cloudy,350,2013-01-17 17:53:00
1:53 PM,43.0,26.1,51,30.04,10.0,NW,10.4,18.4,N/A,,Clear,310,2013-01-17 18:53:00
2:53 PM,43.0,24.1,47,30.04,10.0,NNW,9.2,17.3,N/A,,Clear,340,2013-01-17 19:53:00
3:53 PM,42.1,25.0,51,30.06,10.0,NNW,6.9,-,N/A,,Partly Cloudy,330,2013-01-17 20:53:00
4:53 PM,41.0,24.1,51,30.08,10.0,NNW,6.9,-,N/A,,Clear,330,2013-01-17 21:53:00
5:53 PM,41.0,25.0,53,30.07,10.0,NNW,4.6,-,N/A,,Overcast,340,2013-01-17 22:53:00
6:53 PM,39.9,25.0,55,30.09,10.0,NNW,4.6,-,N/A,,Overcast,330,2013-01-17 23:53:00
7:53 PM,39.9,25.0,55,30.09,10.0,NW,3.5,-,N/A,,Overcast,310,2013-01-18 00:53:00
8:53 PM,39.0,26.1,60,30.06,10.0,NNW,4.6,-,N/A,,Overcast,340,2013-01-18 01:53:00
9:53 PM,37.0,27.0,67,30.06,10.0,NNE,9.2,-,N/A,,Overcast,20,2013-01-18 02:53:00
10:53 PM,36.0,24.1,62,30.04,10.0,NE,12.7,-,N/A,,Overcast,40,2013-01-18 03:53:00
11:53 PM,35.1,23.0,61,30.05,10.0,NNE,4.6,-,N/A,,Overcast,30,2013-01-18 04:53:00